Alamogordo, NM

2:18 PM MDT on August 30, 2016 (GMT -0600)
Alamogordo-White Sands Regional

Weather History for KALM - February, 2013

Change the Weather History Date:

Saturday, February 9, 2013

  Actual Average Record
Temperature  
Mean Temperature 46 °F -  
Max Temperature 60 °F 56 °F 76 °F (1957)
Min Temperature 32 °F 30 °F 16 °F (1974)
Degree Days  
Heating Degree Days 19    
Moisture  
Dew Point 13 °F    
Average Humidity 24    
Maximum Humidity 44    
Minimum Humidity 12    
Precipitation  
Precipitation 0.00 in - - ()
Sea Level Pressure  
Sea Level Pressure 29.83 in    
Wind  
Wind Speed 17 mph (SSW)    
Max Wind Speed 31 mph    
Max Gust Speed 43 mph    
Visibility 8 miles    
Events      
Averages and records for this station are not official NWS values.
T = Trace of Precipitation, MM = Missing Value Source: NWS Daily Summary

Daily Weather History Graph

Daily Weather History Graph

Search for Another Location

Airport or City:

Trip Planner

Search our weather history database for the weather conditions in past years. The results will help you decide how hot, cold, wet, or windy it might be!

Date:

Astronomy

Feb. 09, 2013 Rise Set
Actual Time 6:52 AM MST 5:44 PM MST
Civil Twilight 6:27 AM MST 6:09 PM MST
Nautical Twilight 5:57 AM MST 6:38 PM MST
Astronomical Twilight 5:29 AM MST 7:07 PM MST
Moon 6:06 AM MST (2/9) 5:28 PM MST (2/9)
Length of Visible Light 11h 42m
Length of Day
10h 51m
Waning Crescent, 0% of the Moon is Illuminated
Feb 9
Waning Crescent
Feb 10
New
Feb 17
First Quarter
Feb 25
Full
Mar 4
Last Quarter

Hourly Weather History & Observations

Time (MST) Temp. Windchill Dew Point Humidity Pressure Visibility Wind Dir Wind Speed Gust Speed Precip Events Conditions
12:15 AM 55.4 °F - 23.0 °F 29% 29.85 in 10.0 mi SSE 20.7 mph - N/A   Clear
12:35 AM 55.4 °F - 21.2 °F 26% 29.84 in 10.0 mi South 18.4 mph - N/A   Clear
12:55 AM 53.6 °F - 19.4 °F 26% 29.84 in 10.0 mi South 12.7 mph - N/A   Clear
1:15 AM 53.6 °F - 19.4 °F 26% 29.84 in 10.0 mi SSE 13.8 mph - N/A   Clear
1:35 AM 53.6 °F - 17.6 °F 24% 29.84 in 10.0 mi South 11.5 mph - N/A   Clear
1:55 AM 53.6 °F - 15.8 °F 22% 29.83 in 10.0 mi SSE 13.8 mph - N/A   Clear
2:15 AM 51.8 °F - 14.0 °F 22% 29.82 in 10.0 mi SSE 10.4 mph - N/A   Clear
2:35 AM 53.6 °F - 12.2 °F 19% 29.81 in 10.0 mi South 10.4 mph 20.7 mph N/A   Clear
2:55 AM 53.6 °F - 12.2 °F 19% 29.80 in 10.0 mi South 12.7 mph - N/A   Clear
3:15 AM 53.6 °F - 14.0 °F 21% 29.80 in 10.0 mi South 11.5 mph - N/A   Clear
3:35 AM 53.6 °F - 10.4 °F 18% 29.80 in 10.0 mi SSE 12.7 mph - N/A   Clear
3:55 AM 55.4 °F - 12.2 °F 18% 29.78 in 10.0 mi SSE 18.4 mph 29.9 mph N/A   Clear
4:15 AM 53.6 °F - 12.2 °F 19% 29.78 in 10.0 mi South 16.1 mph - N/A   Clear
4:35 AM 53.6 °F - 12.2 °F 19% 29.77 in 10.0 mi SSE 15.0 mph - N/A   Clear
4:55 AM 53.6 °F - 14.0 °F 21% 29.77 in 10.0 mi SSE 19.6 mph 24.2 mph N/A   Clear
5:15 AM 53.6 °F - 14.0 °F 21% 29.77 in 10.0 mi South 12.7 mph - N/A   Clear
5:35 AM 53.6 °F - 14.0 °F 21% 29.77 in 10.0 mi South 15.0 mph 20.7 mph N/A   Clear
6:15 AM 53.6 °F - 14.0 °F 21% 29.77 in 10.0 mi South 16.1 mph - N/A   Clear
6:35 AM 53.6 °F - 14.0 °F 21% 29.77 in 10.0 mi South 17.3 mph 24.2 mph N/A   Clear
6:55 AM 53.6 °F - 15.8 °F 22% 29.77 in 10.0 mi SSE 23.0 mph 31.1 mph N/A   Clear
7:15 AM 53.6 °F - 15.8 °F 22% 29.77 in 10.0 mi SSE 18.4 mph 23.0 mph N/A   Clear
7:35 AM 53.6 °F - 15.8 °F 22% 29.77 in 10.0 mi South 16.1 mph - N/A   Clear
7:55 AM 55.4 °F - 15.8 °F 21% 29.77 in 10.0 mi SSE 19.6 mph 24.2 mph N/A   Clear
8:15 AM 57.2 °F - 15.8 °F 20% 29.77 in 10.0 mi South 26.5 mph 33.4 mph N/A   Clear
8:35 AM 57.2 °F - 15.8 °F 20% 29.76 in 10.0 mi South 26.5 mph 34.5 mph N/A   Clear
8:55 AM 57.2 °F - 14.0 °F 18% 29.77 in 10.0 mi South 26.5 mph 34.5 mph N/A   Clear
9:15 AM 57.2 °F - 12.2 °F 17% 29.77 in 10.0 mi South 24.2 mph 35.7 mph N/A   Clear
9:35 AM 59.0 °F - 6.8 °F 13% 29.77 in 7.0 mi South 26.5 mph 40.3 mph N/A   Clear
9:55 AM 59.0 °F - 8.6 °F 14% 29.77 in 9.0 mi South 31.1 mph 38.0 mph N/A   Clear
10:15 AM 59.0 °F - 8.6 °F 14% 29.78 in 10.0 mi SW 18.4 mph 31.1 mph N/A   Clear
10:35 AM 59.0 °F - 8.6 °F 14% 29.77 in 10.0 mi SW 19.6 mph 27.6 mph N/A   Clear
10:55 AM 60.8 °F - 6.8 °F 12% 29.77 in 10.0 mi SSW 27.6 mph 36.8 mph N/A   Clear
11:15 AM 60.8 °F - 6.8 °F 12% 29.76 in 10.0 mi SSW 23.0 mph 32.2 mph N/A   Clear
11:35 AM 60.8 °F - 10.4 °F 14% 29.76 in 8.0 mi SSW 28.8 mph 36.8 mph N/A   Clear
11:55 AM 60.8 °F - 14.0 °F 16% 29.76 in 10.0 mi WSW 25.3 mph 33.4 mph N/A   Clear
12:15 PM 59.0 °F - 14.0 °F 17% 29.75 in 9.0 mi WSW 29.9 mph 38.0 mph N/A   Clear
12:35 PM 59.0 °F - 15.8 °F 19% 29.75 in 8.0 mi WSW 28.8 mph 42.6 mph N/A   Clear
12:55 PM 59.0 °F - 15.8 °F 19% 29.75 in 10.0 mi SW 28.8 mph 39.1 mph N/A   Clear
1:15 PM 59.0 °F - 17.6 °F 20% 29.75 in 10.0 mi SW 20.7 mph 36.8 mph N/A   Clear
1:35 PM 59.0 °F - 19.4 °F 22% 29.74 in 10.0 mi West 25.3 mph 38.0 mph N/A   Clear
1:55 PM 57.2 °F - 17.6 °F 21% 29.75 in 5.0 mi West 23.0 mph 36.8 mph N/A   Haze
2:15 PM 57.2 °F - 17.6 °F 21% 29.75 in 5.0 mi West 28.8 mph 38.0 mph N/A   Haze
2:35 PM 55.4 °F - 17.6 °F 23% 29.77 in 1.5 mi West 25.3 mph 39.1 mph N/A   Haze
2:55 PM 53.6 °F - 17.6 °F 24% 29.79 in 1.8 mi West 28.8 mph 36.8 mph N/A   Haze
3:15 PM 51.8 °F - 17.6 °F 26% 29.81 in 2.5 mi West 25.3 mph 38.0 mph N/A   Haze
3:35 PM 50.0 °F - 15.8 °F 26% 29.82 in 2.0 mi West 26.5 mph 36.8 mph N/A   Haze
3:55 PM 48.2 °F - 15.8 °F 27% 29.84 in 4.0 mi West 24.2 mph 40.3 mph N/A   Haze
4:15 PM 48.2 °F - 15.8 °F 27% 29.85 in 4.0 mi West 25.3 mph 33.4 mph N/A   Haze
4:35 PM 46.4 °F 38.3 °F 14.0 °F 27% 29.86 in 4.0 mi West 23.0 mph 31.1 mph N/A   Haze
4:55 PM 46.4 °F 39.5 °F 14.0 °F 27% 29.86 in 5.0 mi West 17.3 mph 23.0 mph N/A   Haze
5:15 PM 44.6 °F 36.9 °F 8.6 °F 23% 29.87 in 5.0 mi West 18.4 mph 27.6 mph N/A   Haze
5:35 PM 44.6 °F 36.9 °F 8.6 °F 23% 29.88 in 3.0 mi West 18.4 mph 29.9 mph N/A   Haze
5:55 PM 41.0 °F 33.1 °F 8.6 °F 26% 29.90 in 5.0 mi West 15.0 mph 19.6 mph N/A   Haze
6:15 PM 41.0 °F 34.7 °F 6.8 °F 24% 29.91 in 6.0 mi West 10.4 mph 18.4 mph N/A   Haze
6:35 PM 39.2 °F 33.6 °F 6.8 °F 26% 29.91 in 5.0 mi WSW 8.1 mph - N/A   Haze
6:55 PM 39.2 °F 33.0 °F 6.8 °F 26% 29.91 in 6.0 mi WSW 9.2 mph - N/A   Haze
7:15 PM 37.4 °F 32.1 °F 6.8 °F 28% 29.91 in 7.0 mi West 6.9 mph - N/A   Clear
7:35 PM 37.4 °F 29.3 °F 8.6 °F 30% 29.91 in 9.0 mi West 12.7 mph - N/A   Clear
7:55 PM 39.2 °F 31.2 °F 8.6 °F 28% 29.91 in 10.0 mi West 13.8 mph - N/A   Clear
8:15 PM 37.4 °F 29.8 °F 8.6 °F 30% 29.92 in 10.0 mi West 11.5 mph - N/A   Clear
8:35 PM 37.4 °F 30.3 °F 8.6 °F 30% 29.92 in 10.0 mi West 10.4 mph - N/A   Clear
8:55 PM 37.4 °F 30.8 °F 10.4 °F 33% 29.93 in 10.0 mi West 9.2 mph - N/A   Clear
9:15 PM 37.4 °F 33.8 °F 10.4 °F 33% 29.94 in 10.0 mi West 4.6 mph - N/A   Clear
9:35 PM 33.8 °F 30.8 °F 8.6 °F 35% 29.94 in 10.0 mi SE 3.5 mph - N/A   Clear
9:55 PM 33.8 °F - 10.4 °F 38% 29.96 in 10.0 mi Calm Calm - N/A   Clear
10:15 PM 32.0 °F - 10.4 °F 41% 29.96 in 10.0 mi Calm Calm - N/A   Clear
10:35 PM 32.0 °F 27.5 °F 10.4 °F 41% 29.96 in 10.0 mi ESE 4.6 mph - N/A   Clear
10:55 PM 35.6 °F - 12.2 °F 38% 29.97 in 10.0 mi Calm Calm - N/A   Clear
11:15 PM 32.0 °F 28.7 °F 12.2 °F 44% 29.97 in 10.0 mi South 3.5 mph - N/A   Clear
11:35 PM 32.0 °F - 12.2 °F 44% 29.97 in 10.0 mi Calm Calm - N/A   Clear
11:55 PM 32.0 °F 28.7 °F 12.2 °F 44% 29.97 in 10.0 mi SE 3.5 mph - N/A   Clear